Tillbaka till svenska Fidonet
English   Information   Debug  
FILM   0/18
FNEWS_PUBLISH   5034
FN_SYSOP   42247
FN_SYSOP_OLD1   71952
FTP_FIDO   0/2
FTSC_PUBLIC   0/13979
FUNNY   0/4886
GENEALOGY.EUR   0/71
GET_INFO   105
GOLDED   0/408
HAM   0/16786
HOLYSMOKE   0/6791
HOT_SITES   0/1
HTMLEDIT   0/71
HUB203   466
HUB_100   264
HUB_400   39
HUMOR   0/29
IC   0/2851
INTERNET   0/424
INTERUSER   0/3
IP_CONNECT   719
JAMNNTPD   0/233
JAMTLAND   0/47
KATTY_KORNER   0/41
LAN   0/16
LINUX-USER   0/19
LINUXHELP   0/1155
LINUX   0/22430
LINUX_BBS   0/957
mail   18.68
mail_fore_ok   249
MENSA   0/341
MODERATOR   0/102
MONTE   0/992
MOSCOW_OKLAHOMA   0/1245
MUFFIN   0/783
MUSIC   0/321
N203_STAT   938
N203_SYSCHAT   313
NET203   321
NET204   69
NET_DEV   0/10
NORD.ADMIN   0/101
NORD.CHAT   0/2572
NORD.FIDONET   189
NORD.HARDWARE   0/28
NORD.KULTUR   0/114
NORD.PROG   0/32
NORD.SOFTWARE   0/88
NORD.TEKNIK   0/58
NORD   0/453
OCCULT_CHAT   0/93
OS2BBS   0/787
OS2DOSBBS   0/580
OS2HW   0/42
OS2INET   0/37
OS2LAN   0/134
OS2PROG   0/36
OS2REXX   0/113
OS2USER-L   207
OS2   0/4835
OSDEBATE   0/18996
PASCAL   0/490
PERL   0/457
PHP   0/45
POINTS   0/405
POLITICS   0/29554
POL_INC   6784/14731
PSION   103
R20_ADMIN   1133
R20_AMATORRADIO   0/2
R20_BEST_OF_FIDONET   16
R20_CHAT   0/897
R20_DEPP   0/3
R20_DEV   400
R20_ECHO2   1934
R20_ECHOPRES   0/35
R20_ESTAT   0/719
R20_FIDONETPROG...
...RAM.MYPOINT
  0/2
R20_FIDONETPROGRAM   0/22
R20_FIDONET   0/248
R20_FILEFIND   0/24
R20_FILEFOUND   0/22
R20_HIFI   0/3
R20_INFO2   3828
R20_INTERNET   0/12940
R20_INTRESSE   0/60
R20_INTR_KOM   0/99
R20_KANDIDAT.CHAT   42
R20_KANDIDAT   28
R20_KOM_DEV   112
R20_KONTROLL   0/13360
R20_KORSET   0/18
R20_LOKALTRAFIK   0/24
R20_MODERATOR   0/1852
R20_NC   76
R20_NET200   245
R20_NETWORK.OTH...
...ERNETS
  0/13
R20_OPERATIVSYS...
...TEM.LINUX
  0/44
R20_PROGRAMVAROR   0/1
R20_REC2NEC   534
R20_SFOSM   0/341
R20_SF   0/108
R20_SPRAK.ENGLISH   0/1
R20_SQUISH   107
R20_TEST   2
R20_WORST_OF_FIDONET   20
RAR   0/9
RA_MULTI   106
RA_UTIL   0/162
REGCON.EUR   0/2072
REGCON   0/13
SCIENCE   0/1206
SF   0/239
SHAREWARE_SUPPORT   0/5146
SHAREWRE   0/14
SIMPSONS   0/169
STATS_OLD1   0/2539.065
STATS_OLD2   0/2530
STATS_OLD3   0/2395.095
STATS_OLD4   0/1692.25
SURVIVOR   0/495
SYSOPS_CORNER   0/3
SYSOP   0/84
TAGLINES   0/112
TEAMOS2   0/4530
TECH   0/2617
TEST.444   0/105
TRAPDOOR   0/19
TREK   0/755
TUB   0/290
UFO   0/40
UNIX   0/1316
USA_EURLINK   0/102
USR_MODEMS   0/1
VATICAN   0/2740
VIETNAM_VETS   0/14
VIRUS   0/378
VIRUS_INFO   0/201
VISUAL_BASIC   0/473
WHITEHOUSE   0/5187
WIN2000   0/101
WIN32   0/30
WIN95   0/4291
WIN95_OLD1   0/70272
WINDOWS   0/1517
WWB_SYSOP   0/419
WWB_TECH   0/810
ZCC-PUBLIC   0/1
ZEC   4

 
4DOS   0/134
ABORTION   0/7
ALASKA_CHAT   0/506
ALLFIX_FILE   0/1313
ALLFIX_FILE_OLD1   0/7997
ALT_DOS   0/152
AMATEUR_RADIO   0/1039
AMIGASALE   0/14
AMIGA   0/331
AMIGA_INT   0/1
AMIGA_PROG   0/20
AMIGA_SYSOP   0/26
ANIME   0/15
ARGUS   0/924
ASCII_ART   0/340
ASIAN_LINK   0/651
ASTRONOMY   0/417
AUDIO   0/92
AUTOMOBILE_RACING   0/105
BABYLON5   0/17862
BAG   135
BATPOWER   0/361
BBBS.ENGLISH   0/382
BBSLAW   0/109
BBS_ADS   0/5290
BBS_INTERNET   0/507
BIBLE   0/3563
BINKD   0/1119
BINKLEY   0/215
BLUEWAVE   0/2173
CABLE_MODEMS   0/25
CBM   0/46
CDRECORD   0/66
CDROM   0/20
CLASSIC_COMPUTER   0/378
COMICS   0/15
CONSPRCY   0/899
COOKING   42383
COOKING_OLD1   0/24719
COOKING_OLD2   0/40862
COOKING_OLD3   0/37489
COOKING_OLD4   0/35496
COOKING_OLD5   9370
C_ECHO   0/189
C_PLUSPLUS   0/31
DIRTY_DOZEN   0/201
DOORGAMES   0/2388
DOS_INTERNET   0/196
duplikat   6103
ECHOLIST   0/18295
EC_SUPPORT   0/318
ELECTRONICS   0/359
ELEKTRONIK.GER   1534
ENET.LINGUISTIC   0/13
ENET.POLITICS   0/4
ENET.SOFT   0/11701
ENET.SYSOP   34437
ENET.TALKS   0/32
ENGLISH_TUTOR   0/2000
EVOLUTION   0/1335
FDECHO   0/217
FDN_ANNOUNCE   0/7068
FIDONEWS   25235
FIDONEWS_OLD1   0/49742
FIDONEWS_OLD2   0/35949
FIDONEWS_OLD3   0/30874
FIDONEWS_OLD4   0/37224
FIDO_SYSOP   12977
FIDO_UTIL   0/180
FILEFIND   0/209
FILEGATE   0/212
Möte HAM, 16786 texter
 lista första sista föregående nästa
Text 4584, 908 rader
Skriven 2011-07-08 00:30:52 av Amsat List (1:323/120.0)
Ärende: [keps]  orb11188.amsa
=============================
[keps]  orb11188.amsa

Return-Path: <keps-bounces@amsat.org>
X-Rcpt: craig.healy@chowda.com
X-UIDL: 1310097948.2895

SB KEPS @ AMSAT  $ORB11188.O
Orbital Elements  11188.OSCAR

HR AMSAT ORBITAL ELEMENTS FOR OSCAR SATELLITES
FROM WA5QGD FORT WORTH,TX July 7, 2011
Send Subscribe/unsubscribe to KEPS at http://www.amsat.org/mailman/listinfo/kep
BID: ORB11188.O
TO ALL RADIO AMATEURS BT

Satellite: AO-07
Catalog number: 07530
Epoch time:      11187.54893223
Element set:    0124
Inclination:      101.3916 deg
RA of node:       193.3255 deg
Eccentricity:    0.0011610
Arg of perigee:   241.4602 deg
Mean anomaly:     118.5301 deg
Mean motion:   12.53583034 rev/day
Decay rate:       -2.7e-07 rev/day^2
Epoch rev:           67661
Checksum:              260

Satellite: FO-29
Catalog number: 24278
Epoch time:      11187.94813439
Element set:    0618
Inclination:      098.5484 deg
RA of node:       329.4133 deg
Eccentricity:    0.0350246
Arg of perigee:   205.8788 deg
Mean anomaly:     152.4458 deg
Mean motion:   13.52962982 rev/day
Decay rate:        5.0e-08 rev/day^2
Epoch rev:           73513
Checksum:              341

Satellite: SO-33
Catalog number: 25509
Epoch time:      11187.87363654
Element set:       5
Inclination:      031.4313 deg
RA of node:       132.9604 deg
Eccentricity:    0.0353018
Arg of perigee:   053.7793 deg
Mean anomaly:     309.4960 deg
Mean motion:   14.28426081 rev/day
Decay rate:       1.70e-06 rev/day^2
Epoch rev:           66309
Checksum:              295

Satellite: RS-22
Catalog number: 27939
Epoch time:      11188.52751111
Element set:     421
Inclination:      097.8447 deg
RA of node:       041.5515 deg
Eccentricity:    0.0012359
Arg of perigee:   282.9820 deg
Mean anomaly:     077.0013 deg
Mean motion:   14.63607369 rev/day
Decay rate:       2.63e-06 rev/day^2
Epoch rev:           41531
Checksum:              292

Satellite: VO-52
Catalog number: 28650
Epoch time:      11187.60646005
Element set:     839
Inclination:      097.6397 deg
RA of node:       229.8685 deg
Eccentricity:    0.0028182
Arg of perigee:   097.7130 deg
Mean anomaly:     262.7314 deg
Mean motion:   14.82103079 rev/day
Decay rate:       1.49e-06 rev/day^2
Epoch rev:           33362
Checksum:              323

Satellite: SO-67
Catalog number: 35870
Epoch time:      11188.48570895
Element set:       4
Inclination:      097.2794 deg
RA of node:       231.1688 deg
Eccentricity:    0.0001668
Arg of perigee:   000.6416 deg
Mean anomaly:     106.6988 deg
Mean motion:   15.20847998 rev/day
Decay rate:      1.142e-05 rev/day^2
Epoch rev:           10002
Checksum:              321

Satellite: HO-68
Catalog number: 36122
Epoch time:      11188.60878809
Element set:     534
Inclination:      100.4145 deg
RA of node:       249.1105 deg
Eccentricity:    0.0007515
Arg of perigee:   175.7161 deg
Mean anomaly:     184.4021 deg
Mean motion:   13.16286908 rev/day
Decay rate:       -4.4e-07 rev/day^2
Epoch rev:            7492
Checksum:              294

/EX
SB KEPS @ AMSAT  $ORB11188.D
Orbital Elements  11188.MICROS

HR AMSAT ORBITAL ELEMENTS FOR THE MICROSATS
FROM WA5QGD FORT WORTH,TX July 7, 2011
Send Subscribe/unsubscribe to KEPS at http://www.amsat.org/mailman/listinfo/kep
BID: ORB11188.D
TO ALL RADIO AMATEURS BT

Satellite: UO-11
Catalog number: 14781
Epoch time:      11188.75975432
Element set:     594
Inclination:      098.0047 deg
RA of node:       245.4053 deg
Eccentricity:    0.0010157
Arg of perigee:   073.3814 deg
Mean anomaly:     286.8510 deg
Mean motion:   14.79994819 rev/day
Decay rate:        8.0e-08 rev/day^2
Epoch rev:           46883
Checksum:              333

Satellite: AO-16
Catalog number: 20439
Epoch time:      11187.86688936
Element set:    0238
Inclination:      098.3858 deg
RA of node:       136.8284 deg
Eccentricity:    0.0011789
Arg of perigee:   102.7420 deg
Mean anomaly:     257.5081 deg
Mean motion:   14.31927253 rev/day
Decay rate:        2.4e-07 rev/day^2
Epoch rev:           12043
Checksum:              317

Satellite: LO-19
Catalog number: 20442
Epoch time:      11187.94329143
Element set:    0155
Inclination:      098.3466 deg
RA of node:       141.1781 deg
Eccentricity:    0.0012855
Arg of perigee:   097.5464 deg
Mean anomaly:     262.7179 deg
Mean motion:   14.32152423 rev/day
Decay rate:       -2.4e-07 rev/day^2
Epoch rev:           12062
Checksum:              291

Satellite: AO-27
Catalog number: 22825
Epoch time:      11187.96083355
Element set:    0872
Inclination:      098.5317 deg
RA of node:       132.0082 deg
Eccentricity:    0.0007871
Arg of perigee:   212.0417 deg
Mean anomaly:     148.0294 deg
Mean motion:   14.29352711 rev/day
Decay rate:       -7.0e-07 rev/day^2
Epoch rev:           92701
Checksum:              292

Satellite: IO-26
Catalog number: 22826
Epoch time:      11188.79652346
Element set:     603
Inclination:      098.5249 deg
RA of node:       133.2940 deg
Eccentricity:    0.0008225
Arg of perigee:   204.1904 deg
Mean anomaly:     155.8904 deg
Mean motion:   14.29616127 rev/day
Decay rate:        3.3e-07 rev/day^2
Epoch rev:           92725
Checksum:              307

Satellite: GO-32
Catalog number: 25397
Epoch time:      11187.66748579
Element set:     521
Inclination:      098.3263 deg
RA of node:       179.1881 deg
Eccentricity:    0.0000717
Arg of perigee:   164.3419 deg
Mean anomaly:     195.7788 deg
Mean motion:   14.23212187 rev/day
Decay rate:       -3.2e-07 rev/day^2
Epoch rev:           67473
Checksum:              338

